Regional Weather Roundup
Issued by NWS

Home | Current Version | Previous Version | Graphics & Text | Print | Product List | Glossary On
Versions: 1 2 3 4 5 6 7 8 9 10 11 12 13 14 15 16 17 18 19 20 21 22 23 24 25 26 27 28 29 30 31 32 33 34 35 36 37 38 39 40 41 42 43 44 45 46 47 48 49 50
086
ASUS44 KJAN 270610
RWRMS

MISSISSIPPI HOURLY WEATHER ROUNDUP
NATIONAL WEATHER SERVICE JACKSON MS
100 AM CDT SUN JUL 27 2014

NOTE: "FAIR: INDICATES FEW OR NO CLOUDS BELOW 12,000 FEET WITH NO
SIGNIFICANT WEATHER AND/OR OBSTRUCTIONS TO VISIBILITY.

MSZ001>002-007>008-010>013-018>021-025>028-034>036-270700-
NORTHWEST MISSISSIPPI

CITY           SKY/WX    TMP DP  RH WIND       PRES   REMARKS
CLARKSDALE     FAIR      79  77  94 S6        29.98F
CLEVELAND      FAIR      77  77  98 S3        29.98F
GREENWOOD      CLEAR     77  74  90 CALM      30.00S
6HR MIN TEMP:  76; 6HR MAX TEMP:  89;

GREENVILLE     CLEAR     77  74  90 S6        29.99S
6HR MIN TEMP:  77; 6HR MAX TEMP:  91;

GRENADA          N/A     73  73 100 CALM      30.00F
OLIVE BRANCH   CLEAR     77  77 100 S7        29.97F
OXFORD         FAIR      77  73  88 SW6       30.01F
TUNICA         PTCLDY    77  73  88 S5        29.98S
$$

MSZ003>006-009-014>017-022>024-029>033-037>039-270700-
NORTHEAST MISSISSIPPI

CITY           SKY/WX    TMP DP  RH WIND       PRES   REMARKS
BELMONT        FAIR      77  74  90 CALM      30.01S
COLUMBUS AFB   CLEAR     75  75 100 CALM      30.00F
6HR MIN TEMP:  75; 6HR MAX TEMP:  89; 6HR PCP: TRACE;

CORINTH        FAIR      73  72  94 SE5       29.98F FOG
GOLDN TRIANGLE CLEAR     79  72  78 MISG      30.01F
STARKVILLE     MOCLDY    73  72  94 CALM      30.01F FOG
TUPELO         CLEAR     77  74  90 CALM      29.99F
6HR MIN TEMP:  76; 6HR MAX TEMP:  88;

$$

MSZ040-058-270700-
CENTRAL MISSISSIPPI

CITY           SKY/WX    TMP DP  RH WIND       PRES   REMARKS
JACKSON INTL   CLEAR     77  74  90 CALM      30.03S
6HR MIN TEMP:  76; 6HR MAX TEMP:  89;

JACKSON HAWKNS CLEAR     80  73  79 CALM      30.03F
6HR MIN TEMP:  79; 6HR MAX TEMP:  90;

MERIDIAN KEY   CLEAR     75  73  93 CALM      30.03S
6HR MIN TEMP:  75; 6HR MAX TEMP:  90; 6HR PCP:  0.01;

MERIDIAN NAS   CLEAR     76  73  91 NW3       30.03S
6HR MIN TEMP:  76; 6HR MAX TEMP:  91;

RAYMOND        FAIR      75  72  88 CALM      30.03S HAZE
VICKSBURG      CLEAR     78  75  90 S5        30.02S
6HR MIN TEMP:  75; 6HR MAX TEMP:  88;

$$

MSZ059>079-270700-
SOUTH MISSISSIPPI

CITY           SKY/WX    TMP DP  RH WIND       PRES   REMARKS
BROOKHAVEN     FAIR      79  75  89 SW5       30.06F
COLUMBIA       FAIR      77  77 100 CALM      30.03F
HATTIESBURG    CLEAR     82  76  81 SW6       30.04F
6HR MIN TEMP:  82; 6HR MAX TEMP:  91;

MCCOMB         CLEAR     79  75  87 CALM      30.06S
6HR MIN TEMP:  78; 6HR MAX TEMP:  89;

NATCHEZ        CLEAR     79  75  89 S5        30.05S
6HR MIN TEMP:  79; 6HR MAX TEMP:  90;

PINE BELT      CLEAR     79  73  83 SW5       30.05F
6HR MIN TEMP:  79; 6HR MAX TEMP:  90;

$$

MSZ080>082-270700-
COASTAL MISSISSIPPI

CITY           SKY/WX    TMP DP  RH WIND       PRES   REMARKS
BILOXI         CLEAR     82  76  82 W3        30.04F HX  90
6HR MIN TEMP:  82; 6HR MAX TEMP:  86;

PASCAGOULA     CLEAR     80  77  90 CALM      30.04F
6HR MIN TEMP:  80; 6HR MAX TEMP:  85;

GULFPORT       CLEAR     84  76  76 CALM      30.03F HX  93
6HR MIN TEMP:  84; 6HR MAX TEMP:  90;

$$



USA.gov is the U.S. government's official web portal to all federal, state and local government web resources and services.